QPF
0.00 0.00 0.00 0.00 0.00 0.00 0.00 0.00 0.01 0.01 0.02 0.02 0.03 0.03 0.03 0.02 0.02 0.04 0.06 0.04 0.03 0.02 0.01 0.01 0.02 0.02 0.02 0.02 0.03 0.04 0.05 0.06 0.06 0.07 0.07 0.06 0.06 0.05 0.04 0.04 0.04 0.03 0.04 0.06
0.00 0.00 0.00 0.00 0.00 0.00 0.01 0.00 0.01 0.01 0.02 0.03 0.03 0.04 0.04 0.05 0.05 0.04 0.05 0.05 0.03 0.02 0.02 0.01 0.01 0.01 0.01 0.02 0.04 0.05 0.06 0.06 0.05 0.06 0.05 0.05 0.04 0.04 0.04 0.03 0.03 0.02 0.02 0.04
0.00 0.00 0.01 0.01 0.01 0.01 0.01 0.01 0.01 0.02 0.02 0.02 0.03 0.02 0.02 0.03 0.06 0.06 0.07 0.08 0.04 0.03 0.02 0.02 0.02 0.02 0.03 0.03 0.05 0.06 0.08 0.07 0.05 0.04 0.04 0.04 0.03 0.03 0.03 0.02 0.02 0.02 0.02 0.02
0.01 0.01 0.02 0.02 0.02 0.02 0.02 0.01 0.02 0.01 0.01 0.01 0.01 0.01 0.02 0.01 0.02 0.03 0.06 0.10 0.07 0.05 0.04 0.05 0.06 0.04 0.05 0.06 0.07 0.07 0.07 0.05 0.04 0.03 0.03 0.03 0.03 0.02 0.03 0.03 0.02 0.02 0.02 0.02
0.02 0.02 0.02 0.02 0.02 0.02 0.03 0.03 0.02 0.02 0.02 0.01 0.01 0.01 0.01 0.01 0.01 0.01 0.04 0.08 0.08 0.06 0.04 0.04 0.04 0.05 0.06 0.06 0.07 0.07 0.05 0.04 0.03 0.03 0.02 0.03 0.03 0.03 0.03 0.04 0.04 0.03 0.03 0.03
0.03 0.03 0.02 0.01 0.02 0.02 0.04 0.05 0.04 0.04 0.04 0.03 0.02 0.02 0.02 0.02 0.02 0.02 0.05 0.08 0.09 0.08 0.05 0.03 0.03 0.04 0.04 0.04 0.04 0.04 0.03 0.03 0.03 0.03 0.03 0.03 0.03 0.03 0.03 0.04 0.04 0.03 0.03 0.03
0.02 0.02 0.01 0.01 0.02 0.03 0.06 0.09 0.08 0.06 0.06 0.05 0.03 0.03 0.04 0.04 0.03 0.05 0.06 0.08 0.08 0.08 0.07 0.04 0.03 0.03 0.03 0.03 0.03 0.02 0.02 0.02 0.03 0.04 0.04 0.04 0.03 0.02 0.03 0.03 0.03 0.02 0.02 0.03
0.04 0.04 0.03 0.02 0.03 0.05 0.06 0.08 0.09 0.09 0.07 0.06 0.04 0.04 0.05 0.06 0.05 0.04 0.05 0.06 0.06 0.07 0.08 0.05 0.03 0.02 0.01 0.01 0.01 0.01 0.01 0.01 0.02 0.03 0.03 0.02 0.02 0.02 0.03 0.03 0.02 0.02 0.02 0.02
0.06 0.06 0.06 0.04 0.04 0.05 0.06 0.06 0.08 0.10 0.08 0.06 0.05 0.04 0.03 0.04 0.05 0.06 0.04 0.04 0.04 0.04 0.07 0.08 0.04 0.03 0.02 0.01 0.01 0.02 0.02 0.02 0.02 0.02 0.02 0.02 0.01 0.02 0.02 0.02 0.02 0.03 0.03 0.02
0.08 0.08 0.07 0.06 0.05 0.06 0.07 0.06 0.06 0.07 0.08 0.06 0.06 0.05 0.03 0.03 0.03 0.05 0.05 0.04 0.04 0.03 0.04 0.08 0.06 0.04 0.03 0.01 0.01 0.02 0.02 0.02 0.03 0.02 0.03 0.03 0.03 0.02 0.02 0.02 0.03 0.04 0.05 0.05
0.09 0.06 0.06 0.05 0.04 0.07 0.07 0.05 0.05 0.06 0.07 0.07 0.06 0.05 0.03 0.02 0.02 0.03 0.04 0.04 0.03 0.03 0.03 0.06 0.08 0.05 0.04 0.03 0.02 0.02 0.03 0.03 0.04 0.05 0.05 0.04 0.03 0.02 0.02 0.03 0.04 0.05 0.06 0.06
0.05 0.04 0.04 0.04 0.03 0.03 0.04 0.03 0.03 0.03 0.03 0.05 0.06 0.05 0.03 0.03 0.02 0.02 0.03 0.03 0.03 0.04 0.04 0.05 0.07 0.06 0.06 0.07 0.06 0.05 0.05 0.06 0.06 0.06 0.05 0.03 0.03 0.02 0.01 0.02 0.03 0.04 0.05 0.05
0.03 0.06 0.06 0.04 0.04 0.03 0.03 0.02 0.02 0.02 0.02 0.03 0.06 0.06 0.04 0.03 0.02 0.02 0.02 0.02 0.03 0.04 0.04 0.04 0.04 0.04 0.05 0.06 0.07 0.07 0.06 0.05 0.05 0.04 0.02 0.02 0.02 0.01 0.01 0.01 0.02 0.03 0.04 0.04
0.04 0.04 0.05 0.05 0.04 0.03 0.02 0.02 0.02 0.02 0.02 0.02 0.04 0.05 0.03 0.02 0.01 0.02 0.02 0.02 0.02 0.03 0.03 0.03 0.03 0.03 0.03 0.04 0.05 0.05 0.05 0.06 0.05 0.03 0.02 0.02 0.02 0.01 0.01 0.01 0.00 0.02 0.04 0.04
0.04 0.03 0.04 0.05 0.05 0.03 0.02 0.02 0.02 0.03 0.04 0.03 0.02 0.03 0.02 0.02 0.01 0.01 0.01 0.02 0.02 0.02 0.02 0.02 0.02 0.03 0.03 0.03 0.04 0.04 0.05 0.06 0.05 0.04 0.03 0.02 0.02 0.01 0.01 0.01 0.01 0.01 0.02 0.03
0.04 0.02 0.02 0.03 0.04 0.03 0.02 0.02 0.02 0.03 0.04 0.04 0.03 0.02 0.02 0.01 0.01 0.01 0.02 0.03 0.03 0.03 0.03 0.02 0.02 0.02 0.03 0.04 0.04 0.05 0.05 0.06 0.04 0.04 0.03 0.02 0.02 0.01 0.01 0.00 0.01 0.01 0.01 0.02
0.03 0.02 0.02 0.04 0.03 0.02 0.03 0.04 0.06 0.07 0.06 0.05 0.04 0.03 0.02 0.02 0.02 0.02 0.02 0.03 0.04 0.03 0.03 0.03 0.03 0.03 0.03 0.04 0.04 0.04 0.05 0.05 0.05 0.04 0.03 0.02 0.01 0.01 0.01 0.01 0.01 0.01 0.01 0.01
0.02 0.02 0.02 0.03 0.03 0.04 0.05 0.08 0.10 0.09 0.12 0.10 0.05 0.04 0.02 0.03 0.04 0.05 0.04 0.03 0.05 0.03 0.03 0.03 0.03 0.04 0.04 0.04 0.04 0.05 0.06 0.05 0.04 0.03 0.03 0.02 0.01 0.01 0.01 0.01 0.01 0.01 0.01 0.01
0.03 0.04 0.05 0.05 0.05 0.06 0.06 0.06 0.08 0.09 0.11 0.13 0.09 0.05 0.04 0.04 0.04 0.07 0.06 0.05 0.06 0.04 0.03 0.03 0.03 0.03 0.03 0.03 0.04 0.05 0.08 0.07 0.05 0.04 0.03 0.03 0.02 0.01 0.01 0.01 0.01 0.01 0.01 0.02
0.05 0.06 0.08 0.08 0.07 0.06 0.06 0.05 0.05 0.06 0.05 0.07 0.09 0.07 0.06 0.05 0.05 0.04 0.03 0.05 0.05 0.05 0.04 0.03 0.02 0.03 0.03 0.03 0.03 0.04 0.08 0.08 0.08 0.06 0.04 0.04 0.03 0.02 0.01 0.02 0.02 0.01 0.02 0.02
0.06 0.06 0.07 0.08 0.07 0.06 0.06 0.07 0.06 0.04 0.04 0.03 0.04 0.05 0.05 0.04 0.04 0.03 0.04 0.05 0.04 0.05 0.04 0.03 0.03 0.03 0.04 0.03 0.03 0.04 0.09 0.11 0.09 0.08 0.06 0.04 0.04 0.02 0.02 0.02 0.03 0.03 0.03 0.03
0.06 0.07 0.07 0.08 0.07 0.07 0.06 0.05 0.06 0.05 0.05 0.03 0.03 0.04 0.04 0.04 0.04 0.03 0.04 0.04 0.05 0.05 0.04 0.03 0.04 0.04 0.05 0.05 0.05 0.05 0.09 0.11 0.11 0.11 0.10 0.08 0.06 0.04 0.02 0.03 0.03 0.03 0.03 0.03
0.05 0.06 0.06 0.07 0.06 0.06 0.06 0.05 0.05 0.05 0.05 0.04 0.04 0.04 0.04 0.05 0.05 0.05 0.04 0.03 0.05 0.06 0.04 0.03 0.04 0.05 0.05 0.05 0.04 0.05 0.08 0.10 0.11 0.11 0.11 0.10 0.10 0.07 0.05 0.04 0.04 0.03 0.03 0.03
0.02 0.02 0.03 0.03 0.03 0.03 0.04 0.04 0.03 0.03 0.03 0.03 0.03 0.03 0.03 0.03 0.03 0.03 0.03 0.03 0.05 0.05 0.04 0.05 0.06 0.05 0.04 0.04 0.04 0.06 0.07 0.08 0.08 0.09 0.10 0.11 0.11 0.09 0.06 0.04 0.04 0.03 0.02 0.02
0.01 0.01 0.01 0.01 0.02 0.03 0.04 0.04 0.03 0.03 0.02 0.02 0.02 0.02 0.02 0.02 0.02 0.02 0.03 0.03 0.04 0.04 0.04 0.07 0.07 0.05 0.04 0.04 0.05 0.06 0.06 0.05 0.05 0.06 0.08 0.11 0.10 0.08 0.06 0.04 0.04 0.04 0.03 0.02
0.02 0.02 0.02 0.02 0.03 0.04 0.05 0.06 0.05 0.05 0.04 0.03 0.03 0.02 0.02 0.02 0.02 0.02 0.03 0.03 0.04 0.04 0.04 0.04 0.04 0.03 0.03 0.04 0.04 0.05 0.04 0.04 0.03 0.04 0.04 0.06 0.07 0.07 0.06 0.05 0.04 0.04 0.04 0.03
0.02 0.03 0.03 0.03 0.03 0.04 0.05 0.05 0.05 0.04 0.04 0.04 0.04 0.03 0.03 0.02 0.02 0.02 0.02 0.02 0.02 0.02 0.02 0.02 0.02 0.03 0.03 0.03 0.04 0.03 0.03 0.03 0.03 0.03 0.02 0.03 0.04 0.05 0.05 0.05 0.05 0.05 0.05 0.04
MSLP
1011.76 1011.46 1011.09 1010.64 1010.12 1009.52 1008.87 1008.16 1007.42 1006.67 1005.94 1005.24 1004.59 1004.00 1003.44 1002.91 1002.39 1001.86 1001.30 1000.72 1000.15 999.62 999.19 998.92 998.86 999.04 999.48 1000.16 1001.04 1002.05 1003.12 1004.16 1005.12 1005.97 1006.68 1007.25 1007.72 1008.11 1008.46 1008.78 1009.07 1009.33 1009.52 1009.62
1011.38 1010.95 1010.41 1009.77 1009.04 1008.25 1007.43 1006.62 1005.85 1005.15 1004.54 1004.04 1003.64 1003.32 1003.05 1002.80 1002.52 1002.19 1001.80 1001.35 1000.87 1000.41 1000.04 999.82 999.79 1000.01 1000.47 1001.17 1002.06 1003.07 1004.13 1005.16 1006.12 1006.96 1007.66 1008.24 1008.72 1009.12 1009.47 1009.78 1010.04 1010.25 1010.38 1010.39
1010.88 1010.32 1009.64 1008.82 1007.92 1006.97 1006.03 1005.15 1004.36 1003.72 1003.23 1002.91 1002.74 1002.68 1002.68 1002.69 1002.66 1002.55 1002.35 1002.05 1001.71 1001.36 1001.07 1000.92 1000.95 1001.20 1001.69 1002.39 1003.27 1004.26 1005.29 1006.29 1007.22 1008.03 1008.72 1009.29 1009.75 1010.14 1010.46 1010.74 1010.95 1011.10 1011.15 1011.08
1010.37 1009.72 1008.91 1007.97 1006.94 1005.88 1004.85 1003.92 1003.13 1002.53 1002.13 1001.95 1001.96 1002.10 1002.33 1002.56 1002.76 1002.86 1002.86 1002.75 1002.57 1002.36 1002.20 1002.14 1002.24 1002.54 1003.05 1003.76 1004.62 1005.57 1006.56 1007.51 1008.39 1009.16 1009.81 1010.34 1010.78 1011.13 1011.41 1011.63 1011.79 1011.86 1011.84 1011.70
1010.00 1009.27 1008.38 1007.37 1006.26 1005.14 1004.05 1003.08 1002.28 1001.69 1001.34 1001.24 1001.36 1001.64 1002.02 1002.43 1002.81 1003.11 1003.30 1003.38 1003.38 1003.34 1003.33 1003.40 1003.60 1003.96 1004.51 1005.21 1006.05 1006.96 1007.89 1008.78 1009.60 1010.32 1010.91 1011.40 1011.78 1012.08 1012.31 1012.47 1012.56 1012.57 1012.48 1012.28
1009.86 1009.10 1008.19 1007.14 1006.01 1004.85 1003.74 1002.74 1001.91 1001.31 1000.96 1000.86 1001.01 1001.34 1001.80 1002.32 1002.84 1003.29 1003.66 1003.93 1004.12 1004.27 1004.43 1004.64 1004.95 1005.39 1005.98 1006.69 1007.50 1008.37 1009.24 1010.07 1010.82 1011.47 1012.01 1012.44 1012.77 1013.01 1013.18 1013.28 1013.31 1013.26 1013.12 1012.89
1010.01 1009.27 1008.37 1007.36 1006.24 1005.10 1003.98 1002.96 1002.09 1001.44 1001.04 1000.89 1001.00 1001.31 1001.78 1002.33 1002.92 1003.49 1004.00 1004.44 1004.82 1005.15 1005.48 1005.84 1006.27 1006.80 1007.42 1008.14 1008.93 1009.75 1010.56 1011.33 1012.01 1012.60 1013.08 1013.45 1013.73 1013.92 1014.04 1014.09 1014.07 1013.98 1013.81 1013.57
1010.46 1009.78 1008.96 1008.01 1006.97 1005.87 1004.77 1003.74 1002.85 1002.13 1001.64 1001.40 1001.41 1001.64 1002.04 1002.58 1003.19 1003.82 1004.43 1005.00 1005.53 1006.03 1006.51 1007.01 1007.55 1008.15 1008.81 1009.53 1010.30 1011.07 1011.82 1012.52 1013.14 1013.66 1014.09 1014.41 1014.64 1014.79 1014.87 1014.88 1014.83 1014.72 1014.55 1014.32
1011.18 1010.59 1009.88 1009.04 1008.10 1007.09 1006.05 1005.04 1004.12 1003.35 1002.76 1002.41 1002.29 1002.40 1002.71 1003.17 1003.75 1004.39 1005.06 1005.72 1006.36 1006.97 1007.58 1008.18 1008.80 1009.44 1010.13 1010.84 1011.56 1012.27 1012.96 1013.59 1014.15 1014.62 1015.00 1015.28 1015.48 1015.60 1015.65 1015.65 1015.59 1015.48 1015.33 1015.12
1012.09 1011.61 1011.03 1010.34 1009.53 1008.63 1007.68 1006.72 1005.81 1005.00 1004.35 1003.88 1003.64 1003.62 1003.81 1004.18 1004.69 1005.30 1005.96 1006.66 1007.36 1008.04 1008.71 1009.37 1010.02 1010.68 1011.35 1012.02 1012.69 1013.34 1013.95 1014.52 1015.01 1015.44 1015.77 1016.03 1016.21 1016.32 1016.36 1016.36 1016.31 1016.22 1016.09 1015.93
1013.09 1012.74 1012.29 1011.75 1011.09 1010.33 1009.50 1008.63 1007.76 1006.96 1006.27 1005.74 1005.40 1005.26 1005.33 1005.59 1006.01 1006.56 1007.18 1007.86 1008.55 1009.24 1009.92 1010.57 1011.21 1011.84 1012.46 1013.06 1013.66 1014.23 1014.77 1015.27 1015.71 1016.09 1016.40 1016.64 1016.81 1016.92 1016.97 1016.98 1016.95 1016.89 1016.80 1016.68
1014.10 1013.84 1013.52 1013.12 1012.61 1012.01 1011.32 1010.56 1009.79 1009.04 1008.37 1007.81 1007.42 1007.21 1007.18 1007.34 1007.66 1008.11 1008.66 1009.27 1009.90 1010.54 1011.16 1011.76 1012.34 1012.89 1013.43 1013.95 1014.46 1014.95 1015.42 1015.85 1016.24 1016.59 1016.88 1017.11 1017.28 1017.40 1017.48 1017.51 1017.51 1017.48 1017.42 1017.35
1015.01 1014.82 1014.60 1014.31 1013.95 1013.50 1012.96 1012.36 1011.71 1011.06 1010.45 1009.93 1009.53 1009.28 1009.19 1009.26 1009.48 1009.83 1010.27 1010.78 1011.31 1011.85 1012.38 1012.88 1013.36 1013.82 1014.26 1014.68 1015.10 1015.51 1015.91 1016.29 1016.65 1016.97 1017.26 1017.49 1017.68 1017.81 1017.91 1017.96 1017.99 1017.99 1017.96 1017.92
1015.76 1015.60 1015.44 1015.25 1015.01 1014.70 1014.32 1013.87 1013.37 1012.86 1012.36 1011.90 1011.54 1011.29 1011.17 1011.18 1011.32 1011.56 1011.89 1012.27 1012.67 1013.09 1013.49 1013.88 1014.24 1014.59 1014.93 1015.27 1015.61 1015.96 1016.31 1016.66 1016.99 1017.31 1017.59 1017.84 1018.04 1018.20 1018.32 1018.39 1018.44 1018.46 1018.45 1018.43
1016.31 1016.17 1016.04 1015.91 1015.76 1015.57 1015.33 1015.04 1014.71 1014.34 1013.97 1013.62 1013.33 1013.11 1012.98 1012.95 1013.01 1013.16 1013.37 1013.62 1013.89 1014.17 1014.45 1014.71 1014.97 1015.22 1015.48 1015.75 1016.04 1016.34 1016.67 1017.00 1017.33 1017.66 1017.96 1018.22 1018.44 1018.62 1018.75 1018.84 1018.90 1018.93 1018.93 1018.92
1016.68 1016.51 1016.40 1016.31 1016.23 1016.14 1016.03 1015.88 1015.70 1015.49 1015.25 1015.02 1014.81 1014.64 1014.53 1014.47 1014.48 1014.54 1014.64 1014.77 1014.93 1015.08 1015.25 1015.41 1015.57 1015.76 1015.96 1016.18 1016.44 1016.74 1017.06 1017.40 1017.75 1018.08 1018.40 1018.68 1018.92 1019.12 1019.26 1019.35 1019.41 1019.44 1019.43 1019.41
1016.88 1016.70 1016.58 1016.52 1016.50 1016.49 1016.49 1016.47 1016.42 1016.34 1016.24 1016.13 1016.00 1015.89 1015.80 1015.73 1015.69 1015.68 1015.70 1015.73 1015.78 1015.85 1015.92 1016.01 1016.12 1016.25 1016.43 1016.64 1016.90 1017.20 1017.54 1017.90 1018.27 1018.62 1018.96 1019.25 1019.50 1019.69 1019.83 1019.92 1019.97 1019.98 1019.96 1019.92
1016.98 1016.80 1016.69 1016.65 1016.68 1016.74 1016.82 1016.90 1016.97 1017.01 1017.02 1017.01 1016.96 1016.90 1016.84 1016.76 1016.70 1016.64 1016.59 1016.55 1016.53 1016.52 1016.54 1016.58 1016.67 1016.79 1016.96 1017.19 1017.46 1017.79 1018.14 1018.52 1018.90 1019.27 1019.61 1019.90 1020.14 1020.33 1020.45 1020.52 1020.55 1020.54 1020.50 1020.44
1017.04 1016.88 1016.80 1016.80 1016.87 1016.98 1017.14 1017.30 1017.46 1017.59 1017.69 1017.76 1017.78 1017.76 1017.72 1017.65 1017.56 1017.48 1017.39 1017.31 1017.24 1017.20 1017.19 1017.22 1017.30 1017.43 1017.61 1017.86 1018.15 1018.49 1018.86 1019.24 1019.62 1019.98 1020.31 1020.58 1020.80 1020.95 1021.05 1021.10 1021.10 1021.06 1021.00 1020.92
1017.12 1017.02 1016.99 1017.03 1017.15 1017.32 1017.53 1017.75 1017.97 1018.17 1018.34 1018.45 1018.52 1018.54 1018.52 1018.45 1018.37 1018.26 1018.16 1018.06 1017.98 1017.93 1017.92 1017.95 1018.04 1018.18 1018.39 1018.64 1018.95 1019.29 1019.65 1020.01 1020.36 1020.69 1020.97 1021.21 1021.38 1021.50 1021.56 1021.58 1021.55 1021.49 1021.42 1021.33
1017.27 1017.25 1017.28 1017.38 1017.55 1017.76 1018.01 1018.28 1018.54 1018.78 1018.99 1019.14 1019.23 1019.27 1019.26 1019.21 1019.13 1019.03 1018.92 1018.82 1018.75 1018.71 1018.71 1018.76 1018.86 1019.02 1019.23 1019.49 1019.78 1020.09 1020.42 1020.74 1021.04 1021.31 1021.53 1021.70 1021.83 1021.90 1021.92 1021.91 1021.87 1021.80 1021.72 1021.63
1017.50 1017.56 1017.67 1017.83 1018.04 1018.29 1018.57 1018.86 1019.14 1019.40 1019.62 1019.78 1019.89 1019.94 1019.94 1019.90 1019.82 1019.73 1019.64 1019.56 1019.50 1019.48 1019.51 1019.57 1019.69 1019.85 1020.06 1020.29 1020.55 1020.82 1021.09 1021.34 1021.56 1021.76 1021.91 1022.02 1022.08 1022.11 1022.11 1022.08 1022.03 1021.96 1021.90 1021.83
1017.77 1017.92 1018.10 1018.31 1018.56 1018.84 1019.13 1019.43 1019.71 1019.96 1020.17 1020.33 1020.43 1020.48 1020.49 1020.45 1020.39 1020.32 1020.24 1020.19 1020.16 1020.16 1020.20 1020.29 1020.41 1020.57 1020.75 1020.96 1021.16 1021.37 1021.56 1021.73 1021.88 1021.99 1022.07 1022.12 1022.14 1022.13 1022.11 1022.08 1022.04 1022.00 1021.96 1021.93
1018.05 1018.27 1018.50 1018.75 1019.03 1019.31 1019.60 1019.89 1020.15 1020.38 1020.57 1020.71 1020.80 1020.84 1020.84 1020.80 1020.75 1020.70 1020.65 1020.61 1020.61 1020.64 1020.70 1020.80 1020.92 1021.06 1021.22 1021.38 1021.54 1021.67 1021.79 1021.89 1021.95 1021.99 1022.01 1022.01 1022.00 1021.98 1021.96 1021.95 1021.94 1021.94 1021.95 1021.97
1018.26 1018.53 1018.80 1019.08 1019.36 1019.64 1019.92 1020.17 1020.40 1020.60 1020.76 1020.87 1020.93 1020.95 1020.94 1020.91 1020.87 1020.82 1020.79 1020.78 1020.80 1020.85 1020.93 1021.03 1021.15 1021.28 1021.41 1021.53 1021.63 1021.71 1021.76 1021.79 1021.80 1021.78 1021.76 1021.74 1021.71 1021.70 1021.70 1021.73 1021.77 1021.82 1021.89 1021.97
1018.35 1018.65 1018.94 1019.23 1019.51 1019.78 1020.03 1020.25 1020.45 1020.60 1020.72 1020.80 1020.83 1020.83 1020.81 1020.77 1020.73 1020.70 1020.68 1020.69 1020.73 1020.79 1020.88 1020.99 1021.10 1021.21 1021.32 1021.40 1021.46 1021.49 1021.50 1021.48 1021.45 1021.41 1021.37 1021.34 1021.33 1021.34 1021.38 1021.45 1021.54 1021.66 1021.79 1021.93
1018.26 1018.58 1018.89 1019.18 1019.45 1019.70 1019.93 1020.12 1020.29 1020.41 1020.50 1020.54 1020.56 1020.54 1020.50 1020.46 1020.42 1020.40 1020.39 1020.41 1020.46 1020.53 1020.62 1020.72 1020.83 1020.93 1021.01 1021.07 1021.10 1021.10 1021.08 1021.04 1020.98 1020.93 1020.89 1020.87 1020.88 1020.93 1021.01 1021.13 1021.29 1021.46 1021.65 1021.85
Thickness
5716 5725 5727 5725 5727 5729 5720 5714 5705 5708 5711 5717 5723 5725 5725 5726 5726 5725 5724 5723 5722 5720 5719 5718 5716 5715 5714 5712 5710 5708 5703 5700 5698 5697 5696 5695 5695 5694 5694 5693 5693 5692 5691 5690
5705 5718 5719 5717 5721 5723 5722 5720 5714 5711 5708 5720 5723 5723 5721 5721 5720 5718 5717 5717 5716 5714 5713 5711 5710 5709 5707 5704 5702 5699 5694 5692 5691 5690 5688 5687 5687 5686 5686 5685 5684 5683 5682 5681
5684 5702 5703 5694 5708 5712 5713 5716 5713 5702 5707 5715 5713 5713 5713 5714 5715 5712 5710 5708 5707 5706 5705 5704 5703 5703 5700 5698 5695 5691 5688 5685 5683 5682 5680 5680 5680 5679 5677 5676 5676 5674 5673 5673
5672 5680 5669 5690 5713 5716 5710 5710 5713 5711 5711 5712 5711 5710 5709 5711 5709 5707 5706 5703 5700 5699 5698 5696 5695 5694 5692 5689 5685 5682 5679 5677 5676 5674 5672 5671 5671 5670 5669 5668 5667 5666 5665 5664
5658 5659 5668 5688 5702 5704 5698 5694 5704 5704 5704 5705 5705 5701 5698 5703 5705 5702 5700 5697 5695 5694 5692 5689 5687 5686 5683 5679 5676 5673 5671 5669 5669 5667 5665 5664 5662 5661 5661 5659 5659 5658 5658 5657
5654 5651 5651 5675 5698 5705 5695 5678 5695 5697 5695 5695 5694 5680 5682 5693 5695 5693 5692 5690 5687 5685 5683 5680 5679 5678 5675 5670 5667 5665 5664 5663 5662 5660 5658 5656 5654 5653 5653 5652 5651 5651 5650 5650
5647 5645 5655 5679 5693 5695 5669 5671 5687 5690 5689 5687 5682 5681 5683 5686 5685 5684 5683 5681 5679 5676 5673 5671 5670 5669 5665 5661 5659 5659 5657 5655 5654 5653 5651 5649 5647 5646 5645 5644 5643 5642 5642 5641
5640 5637 5645 5676 5679 5671 5669 5678 5680 5681 5681 5680 5677 5678 5677 5677 5675 5674 5673 5672 5670 5666 5663 5662 5661 5659 5655 5653 5652 5651 5649 5647 5646 5645 5644 5643 5639 5638 5637 5636 5634 5633 5632 5631
5642 5643 5656 5667 5668 5670 5671 5669 5670 5671 5673 5672 5670 5668 5668 5667 5666 5665 5664 5661 5659 5657 5654 5652 5651 5649 5645 5645 5645 5642 5640 5638 5637 5636 5635 5634 5631 5630 5628 5627 5625 5624 5623 5622
5638 5644 5652 5657 5661 5662 5663 5661 5662 5663 5664 5664 5661 5660 5659 5657 5656 5655 5654 5651 5649 5647 5644 5642 5642 5641 5639 5638 5637 5634 5631 5629 5628 5626 5625 5624 5623 5622 5620 5618 5617 5616 5615 5614
5630 5636 5642 5647 5650 5652 5653 5655 5654 5654 5655 5654 5653 5651 5650 5647 5646 5644 5643 5642 5640 5637 5634 5633 5633 5632 5631 5628 5627 5625 5622 5620 5618 5617 5616 5615 5614 5613 5613 5612 5611 5610 5609 5608
5622 5630 5630 5633 5640 5643 5643 5643 5643 5644 5643 5643 5643 5642 5640 5638 5637 5635 5633 5632 5630 5628 5626 5624 5623 5622 5622 5620 5618 5615 5612 5611 5609 5608 5607 5606 5605 5605 5606 5606 5606 5605 5604 5603
5626 5630 5629 5632 5634 5635 5634 5634 5635 5635 5633 5631 5631 5632 5630 5628 5627 5626 5624 5622 5620 5619 5617 5615 5614 5612 5612 5611 5610 5607 5604 5603 5602 5600 5599 5598 5597 5597 5597 5598 5598 5597 5597 5596
5624 5624 5622 5624 5624 5626 5626 5627 5627 5626 5625 5623 5622 5621 5620 5618 5617 5616 5615 5614 5613 5610 5608 5606 5605 5603 5603 5602 5601 5599 5598 5596 5595 5593 5592 5591 5591 5591 5590 5589 5588 5588 5589 5589
5618 5619 5617 5618 5617 5617 5617 5616 5614 5613 5613 5611 5612 5611 5610 5608 5607 5607 5607 5606 5604 5601 5599 5597 5596 5595 5596 5595 5593 5592 5590 5589 5588 5587 5586 5585 5584 5584 5584 5583 5582 5581 5581 5582
5611 5611 5610 5608 5607 5607 5607 5606 5604 5603 5604 5602 5602 5601 5601 5600 5599 5598 5597 5596 5593 5591 5591 5590 5589 5589 5589 5588 5587 5586 5584 5584 5582 5581 5579 5578 5577 5577 5576 5576 5575 5574 5574 5574
5600 5599 5600 5599 5599 5600 5600 5599 5598 5597 5597 5596 5595 5595 5593 5591 5589 5588 5588 5587 5586 5585 5584 5583 5582 5582 5582 5581 5579 5579 5578 5577 5576 5574 5572 5571 5570 5570 5569 5569 5569 5569 5568 5569
5598 5597 5596 5595 5594 5593 5593 5594 5593 5592 5591 5591 5589 5587 5583 5581 5579 5580 5580 5579 5577 5576 5575 5576 5576 5575 5575 5574 5573 5572 5571 5570 5568 5566 5565 5564 5564 5563 5563 5563 5563 5563 5563 5562
5591 5590 5590 5590 5589 5587 5587 5586 5586 5586 5585 5583 5581 5579 5576 5574 5573 5572 5572 5569 5568 5566 5568 5569 5568 5568 5567 5567 5567 5566 5564 5563 5562 5560 5559 5559 5558 5557 5557 5557 5557 5557 5557 5555
5582 5583 5582 5582 5582 5581 5581 5580 5579 5578 5577 5576 5574 5570 5566 5565 5564 5563 5562 5560 5560 5560 5561 5561 5560 5560 5560 5560 5560 5558 5557 5556 5555 5554 5553 5551 5551 5550 5550 5551 5551 5551 5551 5550
5573 5574 5574 5573 5574 5574 5574 5573 5571 5570 5569 5567 5564 5560 5557 5556 5555 5554 5553 5551 5552 5553 5553 5553 5552 5552 5553 5552 5552 5551 5550 5549 5548 5547 5547 5546 5544 5544 5545 5545 5546 5545 5545 5544
5564 5564 5565 5565 5565 5565 5565 5564 5564 5562 5560 5558 5556 5553 5550 5548 5547 5547 5546 5546 5547 5547 5547 5546 5546 5546 5546 5545 5544 5543 5543 5542 5541 5541 5540 5539 5539 5539 5540 5540 5540 5539 5539 5538
5555 5555 5556 5557 5556 5556 5557 5556 5555 5554 5553 5551 5549 5546 5544 5542 5541 5541 5539 5540 5541 5541 5541 5541 5541 5541 5540 5538 5537 5536 5535 5535 5534 5534 5534 5534 5533 5534 5534 5534 5533 5533 5532 5532
5549 5549 5549 5549 5549 5548 5546 5546 5546 5546 5545 5544 5543 5541 5539 5536 5535 5535 5535 5535 5535 5535 5534 5535 5535 5534 5533 5531 5530 5529 5529 5528 5528 5528 5528 5528 5527 5527 5526 5526 5526 5525 5525 5525
5543 5542 5542 5541 5540 5538 5538 5538 5538 5537 5537 5535 5536 5535 5534 5532 5530 5529 5529 5528 5528 5528 5528 5528 5527 5527 5525 5524 5523 5523 5523 5523 5523 5523 5521 5520 5520 5520 5519 5519 5519 5518 5518 5517
5536 5535 5535 5534 5533 5532 5531 5530 5529 5529 5529 5528 5528 5528 5528 5527 5526 5525 5523 5523 5523 5523 5522 5522 5521 5520 5520 5519 5518 5517 5517 5517 5516 5516 5514 5513 5513 5512 5512 5511 5511 5511 5510 5510
5530 5529 5527 5527 5527 5526 5525 5524 5523 5523 5523 5522 5522 5522 5522 5521 5520 5519 5519 5518 5518 5517 5517 5516 5516 5515 5514 5513 5512 5512 5511 5510 5509 5508 5507 5506 5506 5505 5505 5505 5504 5504 5503 5503